| time (UTC) | temp F | wind direction | speed MPH | gust MPH | rain 1hr in | rain 24hr in | rain mn in | humidity % | barometer mb |
| 20260905140307 | 62 | 0 | 2.0 | 0.0 | 0.00 | 0.00 | 0.00 | 63 | 1002.0 |
| 20260905133307 | 62 | 0 | 2.0 | 0.0 | 0.00 | 0.00 | 0.00 | 63 | 1002.0 |
| 20260905130306 | 62 | 0 | 2.0 | 0.0 | 0.00 | 0.00 | 0.00 | 51 | 1002.0 |
| 20260905123306 | 62 | 0 | 2.0 | 0.0 | 0.00 | 0.00 | 0.00 | 59 | 1002.0 |
| 20260905120306 | 60 | 0 | 2.0 | 0.0 | 0.00 | 0.00 | 0.00 | 63 | 1001.0 |
| 20260905113307 | 59 | 240 | 3.0 | 0.0 | 0.00 | 0.00 | 0.00 | 76 | 1001.0 |
| 20260905110308 | 60 | 0 | 2.0 | 0.0 | 0.00 | 0.00 | 0.00 | 67 | 1001.0 |
| 20260905103306 | 59 | 220 | 3.0 | 0.0 | 0.00 | 0.00 | 0.00 | 72 | 1001.0 |
| 20260905100308 | 59 | 190 | 3.0 | 0.0 | 0.00 | 0.00 | 0.00 | 67 | 1001.0 |
| 20260905093307 | 57 | 200 | 3.0 | 0.0 | 0.00 | 0.00 | 0.00 | 82 | 1000.0 |
| 20260905090307 | 55 | 180 | 7.0 | 0.0 | 0.00 | 0.00 | 0.00 | 87 | 1000.0 |
| 20260905083306 | 55 | 120 | 5.0 | 0.0 | 0.00 | 0.00 | 0.00 | 87 | 1000.0 |
| 20260905080306 | 55 | 200 | 3.0 | 0.0 | 0.00 | 0.00 | 0.00 | 87 | 1000.0 |
| 20260905073306 | 55 | 0 | 0.0 | 0.0 | 0.00 | 0.00 | 0.00 | 81 | 999.0 |
| 20260905070306 | 55 | 0 | 0.0 | 0.0 | 0.00 | 0.00 | 0.00 | 81 | 999.0 |
| 20260905063306 | 55 | 0 | 0.0 | 0.0 | 0.00 | 0.00 | 0.00 | 81 | 999.0 |
| 20260905060306 | 53 | 0 | 0.0 | 0.0 | 0.00 | 0.00 | 0.00 | 87 | 999.0 |
| 20260905053307 | 53 | 0 | 0.0 | 0.0 | 0.00 | 0.00 | 0.00 | 87 | 998.0 |
| 20260905050306 | 53 | 0 | 0.0 | 0.0 | 0.00 | 0.00 | 0.00 | 81 | 998.0 |
| 20260905043306 | 55 | 0 | 0.0 | 0.0 | 0.00 | 0.00 | 0.00 | 71 | 998.0 |
| 20260905040306 | 53 | 0 | 0.0 | 0.0 | 0.00 | 0.00 | 0.00 | 76 | 998.0 |
| 20260905033306 | 55 | 50 | 2.0 | 0.0 | 0.00 | 0.00 | 0.00 | 71 | 998.0 |
| 20260905030307 | 53 | 0 | 1.0 | 0.0 | 0.00 | 0.00 | 0.00 | 81 | 998.0 |
| 20260905023307 | 55 | 90 | 3.0 | 0.0 | 0.00 | 0.00 | 0.00 | 71 | 998.0 |
| 20260905020307 | 55 | 0 | 2.0 | 0.0 | 0.00 | 0.00 | 0.00 | 71 | 998.0 |
| 20260905013307 | 55 | 0 | 2.0 | 0.0 | 0.00 | 0.00 | 0.00 | 71 | 998.0 |
| 20260905010308 | 55 | 0 | 0.0 | 0.0 | 0.00 | 0.00 | 0.00 | 71 | 997.0 |
| 20260905003307 | 59 | 0 | 3.0 | 0.0 | 0.00 | 0.00 | 0.00 | 58 | 997.0 |
| 20260905000308 | 60 | 130 | 5.0 | 0.0 | 0.00 | 0.00 | 0.00 | 55 | 997.0 |
| 20260904233307 | 59 | 0 | 3.0 | 0.0 | 0.00 | 0.00 | 0.00 | 62 | 998.0 |
| 20260904230308 | 59 | 0 | 2.0 | 0.0 | 0.00 | 0.00 | 0.00 | 62 | 997.0 |
| 20260904223308 | 59 | 0 | 2.0 | 0.0 | 0.00 | 0.00 | 0.00 | 58 | 997.0 |
| 20260904220307 | 53 | 0 | 2.0 | 0.0 | 0.00 | 0.00 | 0.00 | 81 | 997.0 |
| 20260904213307 | 53 | 0 | 2.0 | 0.0 | 0.00 | 0.00 | 0.00 | 81 | 997.0 |
| 20260904210306 | 55 | 0 | 1.0 | 0.0 | 0.00 | 0.00 | 0.00 | 71 | 997.0 |
| 20260904203307 | 55 | 0 | 6.0 | 0.0 | 0.00 | 0.00 | 0.00 | 76 | 997.0 |
| 20260904200306 | 55 | 0 | 6.0 | 0.0 | 0.00 | 0.00 | 0.00 | 76 | 997.0 |
| 20260904193307 | 57 | 50 | 3.0 | 0.0 | 0.00 | 0.00 | 0.00 | 76 | 997.0 |
| 20260904190307 | 59 | 0 | 0.0 | 0.0 | 0.00 | 0.00 | 0.00 | 72 | 997.0 |
| 20260904183308 | 57 | 30 | 3.0 | 0.0 | 0.00 | 0.00 | 0.00 | 82 | 997.0 |
| 20260904180308 | 57 | 50 | 5.0 | 0.0 | 0.00 | 0.00 | 0.00 | 82 | 997.0 |
| 20260904173307 | 59 | 50 | 3.0 | 0.0 | 0.00 | 0.00 | 0.00 | 76 | 997.0 |
| 20260904170308 | 60 | 60 | 7.0 | 0.0 | 0.00 | 0.00 | 0.00 | 72 | 997.0 |
| 20260904163308 | 60 | 30 | 8.0 | 0.0 | 0.00 | 0.00 | 0.00 | 72 | 997.0 |
| 20260904160308 | 60 | 30 | 8.0 | 0.0 | 0.00 | 0.00 | 0.00 | 72 | 998.0 |
| 20260904153307 | 60 | 30 | 7.0 | 0.0 | 0.00 | 0.00 | 0.00 | 67 | 998.0 |
| 20260904150308 | 59 | 40 | 9.0 | 0.0 | 0.00 | 0.00 | 0.00 | 76 | 998.0 |
| 20260904143308 | 62 | 30 | 9.0 | 0.0 | 0.00 | 0.00 | 0.00 | 67 | 998.0 |